SCOUT X-4 DEB, 732

Orbit data source: Space-Track

SCOUT X-4 DEB, 732 is space debris in LEO originally from a launch on Thu, 19 Dec 1963 UTC launched from the Air Force Western Test Range (AFWTR). Debris objects in space refer to the collection of defunct objects orbiting the Earth. Examples of debris include non-operational satellites, rocket bodies, and fragments generated from explosions, collisions, or faulty payload assembly.

Loading next visibility...
Identifier
732, 1963-053H
Orbit
LEO
Country
Flag of USUS
Related business
Manufacturer
Unknown
Mission
Spacecraft
Bus & Motor
Unknown
Mass
Unknown
Launch date (UTC)
1963-12-19 (62 years ago)
Launch vehicle
Unknown
Launch site
Air Force Western Test Range (AFWTR)
Object type
Payload
Rocket body
Debris
Shape & HBR
Unknown shape, 0.1 m
Radar Cross Section
Small (<0.1 m²)

Expand to show TLE details & history
Last TLE update: 7 hours ago

TLE from 7 hours ago
0 SCOUT X-4 DEB
1 00732U 63053H   25354.50790035  .00011001  00000-0  31687-2 0  9997
2 00732  78.5510  90.1537 0415452 156.3876 205.6981 14.04406496950050
Epoch: 2025-12-20T12:11Z
TLE epoch observation values (Epoch: 2025-12-20T12:11:22.590Z)
Latitude
-0.00003°
Longitude
177.97587°
Altitude
1,155.323 km
Speed
7.137 km/s
True Right ascension
06h 00m 36s
True Declination
0° 00' 00"
Sunlit
Object was in full shadow at epoch
Visualization orbit readout
Latitude
Unknown
Longitude
Unknown
Altitude
Unknown
Speed
Unknown
Apparent Right ascension
Unknown
Apparent Declination
Unknown
Sunlit
N/A
Visualization observer readout
Local Sidereal Time
18:23:08
Azimuth
Unknown
Elevation
Unknown
Doppler factor
Unknown
Orbital elements
Apogee altitude
1,177.269 km
Perigee altitude
574.528 km
Semi-major axis
7,254.036 km
Eccentricity
0.04155
Inclination
78.551°
RAAN
90.1537°
Arg. of periapsis
156.3876°
True anomaly
203.72653°
Mean anomaly
205.6981°
Eccentric anomaly
204.7033°
Mean motion
3.51296 °/min
Orbital period
102.48 mins
BSTAR
0.0031687
Loading maneuver chart data...
Computing Atmospheric mass density...
Loading historical data...
Loading historical data...
Loading historical data...
Loading historical data...
Loading historical data...
Loading historical data...
Loading historical data...

Documentation

Showing up to 5 results
|